Tracking 19634 objects as of 23-May-2019
HD Live streaming from Space Station
objects crossing your sky now

ORBCOMM FM 34

Track ORBCOMM FM 34 now!
10-day predictions
ORBCOMM FM 34 is classified as:


NORAD ID: 25986
Int'l Code: 1999-065G
Perigee: 788.6 km
Apogee: 791.0 km
Inclination: 45.0 °
Period: 100.5 minutes
Semi major axis: 7160 km
RCS: 0.5409 m2 (medium)
Launch date: December 4, 1999
Source: ORBCOMM (ORB)
Launch site: AIR FORCE EASTERN TEST RANGE (AFETR)
aabbcc
Your satellite tracking list
Your tracking list is empty




NASA's NSSDC Master Catalog

Two Line Element Set (TLE):
1 25986U 99065G   19142.19043092 -.00000031  00000-0  40158-4 0  9991
2 25986  45.0404  94.8458 0001677  57.9602 302.1407 14.32732405 16620
Source of the keplerian elements: AFSPC